[[{"header":{"parameterUnit":"m.s-1","parameterCategory":1,"la1":30.2991,"la2":30.254,"lo1":-89.0895,"lo2":-89.0444,"dy":0.0017,"dx":0.0017,"nx":28,"ny":28,"refTime":"2023-07-23T21:00:00:Z","depth":0,"parameterNumber":2,"parameterNumberName":"U-component_of_WINDS"},"data":[0,0,0,0,0,0,0,0,0,0,0,0,0,0,0,0,0,0,0,0,0,0,0,0,0,0,0,0,0,0,0,0,0,0,0,0,0,0,0,0,0,0,0,0,0,0,0,0,0,0,0,0,0,0,0,0,0,0,-0.6614,-0.6614,0,-0.6586,-0.6585,-0.6585,-0.6586,-0.6586,-0.6587,-0.6587,-0.6555,-0.6554,-0.6552,0,0,0,0,0,0,0,0,0,0,0,0,0,-0.6668,-0.6667,-0.6614,-0.6614,-0.6613,-0.6586,-0.6585,-0.6585,-0.6586,-0.6586,-0.6587,-0.6587,-0.6555,-0.6554,-0.6552,0,0,0,0,0,0,0,0,0,0,0,0,0,-0.6642,-0.6667,-0.6614,-0.6611,-0.661,-0.6586,-0.6585,-0.6585,-0.6586,-0.6586,-0.6587,-0.6588,-0.6556,-0.6554,-0.6552,-0.6528,0,0,-0.6546,-0.6545,0,0,0,0,0,0,0,0,-0.6644,-0.664,-0.6612,-0.6611,-0.661,-0.659,-0.6592,-0.6566,-0.6586,-0.6595,-0.6587,-0.6588,-0.6566,-0.6563,-0.6556,-0.6527,-0.6525,-0.6546,-0.6545,-0.6544,-0.6544,0,0,0,0,0,0,0,-0.6646,-0.6642,-0.6603,-0.6611,-0.661,-0.661,-0.6607,-0.6587,-0.6577,-0.6594,-0.6594,-0.6591,-0.6565,-0.6558,-0.6556,-0.6525,-0.6546,-0.6544,-0.6543,-0.6543,-0.6475,-0.6475,0,0,0,0,0,0,-0.6649,-0.6643,-0.6604,-0.6602,-0.6629,-0.6609,-0.6605,-0.6596,-0.6577,-0.6575,-0.6591,-0.6591,-0.6561,-0.6558,-0.6554,-0.6525,-0.6544,-0.6542,-0.6541,-0.6476,-0.6475,-0.6474,0,0,0,0,0,0,-0.665,-0.6645,-0.6605,-0.6623,-0.6617,-0.6607,-0.6596,-0.6595,-0.6588,-0.6575,-0.6573,-0.6585,-0.6561,-0.6557,-0.6535,-0.6524,-0.6542,-0.654,-0.6477,-0.6476,-0.6475,-0.6467,0,0,0,0,0,0,-0.6651,-0.6645,-0.6636,-0.6622,-0.6617,-0.6586,-0.6596,-0.6594,-0.6585,-0.6585,-0.6569,-0.6567,-0.6562,-0.6538,-0.6533,-0.6522,-0.6538,-0.6478,-0.6476,-0.6475,-0.6468,-0.6466,-0.6464,0,0,0,0,0,-0.6653,-0.6634,-0.6636,-0.6631,-0.6605,-0.6586,-0.6582,-0.6578,-0.6584,-0.6575,-0.6567,-0.6567,-0.6527,-0.6536,-0.653,-0.6518,-0.6478,-0.6477,-0.6475,-0.6469,-0.6467,-0.6464,0,0,0,0,0,0,-0.6646,-0.6632,-0.6634,-0.661,-0.6599,-0.6586,-0.6574,-0.6575,-0.6561,-0.6562,-0.6556,-0.6552,-0.653,-0.6522,-0.6533,-0.6495,-0.6503,-0.6501,-0.6501,-0.6498,-0.6496,-0.6497,-0.6537,0,0,0,0,0,-0.6642,-0.6628,-0.6617,-0.6597,-0.6592,-0.6584,-0.6575,-0.6573,-0.6561,-0.6556,-0.6546,-0.6534,-0.6518,-0.6508,-0.6493,-0.6468,-0.6464,-0.6458,-0.6456,-0.6454,-0.6451,-0.6438,-0.6434,-0.6469,-0.6469,-0.6469,0,0,-0.6632,-0.6623,-0.6615,-0.6595,-0.6586,-0.6572,-0.658,-0.6563,-0.6552,-0.6553,-0.6532,-0.6525,-0.651,-0.6487,-0.6476,-0.648,-0.6441,-0.6452,-0.6451,-0.6449,-0.6436,-0.6433,-0.643,-0.6468,-0.6469,-0.6469,0,0,-0.6607,-0.66,-0.6583,-0.6574,-0.6562,-0.6557,-0.6553,-0.654,-0.6536,-0.6515,-0.6516,-0.6503,-0.6476,-0.6466,-0.6457,-0.6432,-0.6432,-0.6428,-0.6416,-0.6403,-0.64,-0.6398,-0.6388,-0.6385,-0.6425,-0.6425,-0.6425,0,-0.6597,-0.6575,-0.6573,-0.6558,-0.6549,-0.6551,-0.6534,-0.6526,-0.6508,-0.6502,-0.6507,-0.6475,-0.6466,-0.644,-0.6434,-0.6428,-0.6422,-0.6428,-0.6401,-0.6398,-0.6396,-0.6387,-0.6383,-0.6425,-0.6425,-0.6425,-0.6425,0,-0.6563,-0.6548,-0.6536,-0.6521,-0.6511,-0.6494,-0.649,-0.648,-0.648,-0.6475,-0.6454,-0.6443,-0.6427,-0.6421,-0.6419,-0.6396,-0.6398,-0.6402,-0.641,-0.6392,-0.6383,-0.638,-0.6424,-0.6424,-0.6424,-0.6424,0,0,-0.6529,-0.6516,-0.6511,-0.6505,-0.6492,-0.648,-0.6465,-0.645,-0.6441,-0.643,-0.6416,-0.6395,-0.64,-0.639,-0.6388,-0.6377,-0.6357,-0.6382,-0.6382,-0.6377,-0.633,-0.6326,-0.6322,-0.6358,-0.6358,-0.6357,-0.6331,0,-0.6502,-0.6475,-0.6474,-0.6448,-0.6434,-0.6438,-0.6424,-0.6415,-0.641,-0.6398,-0.6393,-0.6378,-0.6385,-0.6379,-0.6369,-0.6362,-0.6348,-0.6364,-0.6344,-0.6343,-0.6346,-0.6318,-0.6313,-0.6289,-0.6328,-0.6327,-0.6327,0,-0.6466,-0.6456,-0.6429,-0.642,-0.6414,-0.6402,-0.6389,-0.6377,-0.6367,-0.6365,-0.6356,-0.6356,-0.6339,-0.635,-0.6327,-0.6338,-0.633,-0.6326,-0.6325,-0.6321,-0.6332,-0.6312,-0.6281,-0.6277,-0.6321,-0.6322,-0.6322,0,-0.6443,-0.6423,-0.6404,-0.6399,-0.6388,-0.6379,-0.6374,-0.6365,-0.6357,-0.6346,-0.634,-0.6327,-0.6319,-0.6309,-0.6306,-0.6314,-0.6283,-0.6293,-0.628,-0.628,-0.6271,-0.6271,-0.6237,-0.6269,-0.6269,-0.6269,-0.6269,0,-0.6412,-0.6395,-0.6394,-0.6382,-0.6364,-0.6364,-0.6345,-0.6341,-0.6333,-0.6321,-0.6324,-0.6312,-0.6309,-0.6296,-0.6294,-0.6275,-0.6272,-0.6269,-0.6268,-0.6268,-0.6268,-0.6261,-0.6262,-0.6268,-0.6268,-0.6268,-0.6269,0,-0.6382,-0.6381,-0.6361,-0.6353,-0.6351,-0.6338,-0.6331,-0.632,-0.6318,-0.6302,-0.6298,-0.6293,-0.6279,-0.6276,-0.6258,-0.6256,-0.6234,-0.6236,-0.6237,-0.6237,-0.6223,-0.6224,-0.6182,-0.6176,-0.6214,-0.6213,-0.6213,0,-0.6361,-0.6348,-0.6341,-0.6333,-0.6328,-0.6316,-0.6308,-0.6308,-0.63,-0.6289,-0.6279,-0.6266,-0.6255,-0.6232,-0.6226,-0.6213,-0.6214,-0.62,-0.6211,-0.6212,-0.6212,-0.6212,-0.6211,-0.6197,-0.6196,-0.6196,-0.6196,0,-0.6324,-0.6324,-0.6313,-0.6303,-0.6294,-0.6285,-0.6277,-0.6271,-0.627,-0.626,-0.6247,-0.6238,-0.6222,-0.6208,-0.6196,-0.619,-0.6192,-0.6193,-0.6189,-0.6187,-0.6188,-0.6186,-0.623,-0.6193,-0.6193,-0.6193,-0.6194,-0.6194,-0.6296,-0.6286,-0.6279,-0.6267,-0.6262,-0.6255,-0.6244,-0.6241,-0.623,-0.6217,-0.6219,-0.6204,-0.6196,-0.6179,-0.6174,-0.6162,-0.6166,-0.616,-0.6158,-0.6156,-0.6155,-0.6192,-0.616,-0.616,-0.616,-0.616,-0.616,0,-0.6258,-0.6255,-0.6244,-0.6234,-0.6225,-0.623,-0.6222,-0.6214,-0.6201,-0.6194,-0.6184,-0.6169,-0.6156,-0.6151,-0.6139,-0.613,-0.6131,-0.6127,-0.6126,-0.6125,-0.6152,-0.6156,-0.6127,-0.6127,-0.6127,-0.6127,-0.6127,-0.6127,-0.6237,-0.6219,-0.6219,-0.62,-0.6196,-0.6182,-0.6177,-0.6171,-0.6165,-0.6149,-0.6139,-0.6137,-0.613,-0.6118,-0.6107,-0.6106,-0.6101,-0.6096,-0.6095,-0.612,-0.6123,-0.6126,-0.613,-0.6095,-0.6095,-0.6069,-0.6069,-0.6068]},{"header":{"parameterUnit":"m.s-1","parameterCategory":1,"la1":30.2991,"la2":30.254,"lo1":-89.0895,"lo2":-89.0444,"dy":0.0017,"dx":0.0017,"nx":28,"ny":28,"refTime":"2023-07-23T21:00:00:Z","depth":0,"parameterNumber":3,"parameterNumberName":"V-component_of_WINDS"},"data":[0,0,0,0,0,0,0,0,0,0,0,0,0,0,0,0,0,0,0,0,0,0,0,0,0,0,0,0,0,0,0,0,0,0,0,0,0,0,0,0,0,0,0,0,0,0,0,0,0,0,0,0,0,0,0,0,0,0,3.2008,3.2009,0,3.2028,3.2028,3.2028,3.2103,3.2105,3.2106,3.2108,3.2123,3.2122,3.2121,0,0,0,0,0,0,0,0,0,0,0,0,0,3.2032,3.2031,3.2008,3.2009,3.2009,3.2028,3.2028,3.2028,3.2103,3.2105,3.2107,3.2109,3.2123,3.2122,3.2121,0,0,0,0,0,0,0,0,0,0,0,0,0,3.2033,3.2031,3.2008,3.2048,3.2052,3.2028,3.2028,3.2028,3.2102,3.2105,3.2107,3.211,3.2124,3.2122,3.212,3.2057,0,0,3.2115,3.2114,0,0,0,0,0,0,0,0,3.2033,3.2032,3.2042,3.2046,3.205,3.2066,3.2042,3.2038,3.2102,3.2083,3.2108,3.2111,3.2102,3.2102,3.21,3.2058,3.2058,3.2115,3.2114,3.2113,3.2112,0,0,0,0,0,0,0,3.2033,3.2032,3.2016,3.2042,3.2047,3.2064,3.2067,3.2041,3.2077,3.2085,3.209,3.2092,3.2104,3.2101,3.21,3.2059,3.2115,3.2113,3.2112,3.2111,3.1964,3.1962,0,0,0,0,0,0,3.2028,3.2031,3.2015,3.2017,3.2048,3.2062,3.2065,3.2058,3.2078,3.2084,3.209,3.2095,3.2103,3.2102,3.2101,3.2027,3.2113,3.2111,3.211,3.1967,3.1964,3.1961,0,0,0,0,0,0,3.2028,3.2026,3.2015,3.2025,3.2025,3.2058,3.205,3.2057,3.2054,3.2082,3.2088,3.208,3.2105,3.2104,3.2068,3.2028,3.211,3.2109,3.1971,3.1966,3.1962,3.1878,0,0,0,0,0,0,3.2028,3.2025,3.2002,3.2024,3.2025,3.1981,3.2048,3.2055,3.2051,3.2059,3.2074,3.2079,3.2107,3.207,3.2066,3.2027,3.2107,3.1974,3.1969,3.1964,3.1885,3.1872,3.1861,0,0,0,0,0,3.2029,3.1977,3.2001,3.1999,3.1997,3.1979,3.1979,3.2013,3.2048,3.2024,3.2042,3.2079,3.2034,3.2065,3.2061,3.2022,3.1977,3.197,3.1964,3.189,3.1874,3.1861,0,0,0,0,0,0,3.1948,3.1981,3.2007,3.1962,3.1967,3.1992,3.1963,3.1996,3.199,3.1997,3.2038,3.2041,3.1998,3.2007,3.2042,3.1961,3.2012,3.2004,3.1957,3.1942,3.193,3.1928,3.2106,0,0,0,0,0,3.1925,3.191,3.1939,3.1895,3.1897,3.1929,3.1923,3.1949,3.1956,3.1958,3.1973,3.1977,3.1964,3.1954,3.1943,3.1887,3.1891,3.1858,3.1846,3.1836,3.1828,3.1798,3.1783,3.194,3.194,3.194,0,0,3.1877,3.1893,3.188,3.188,3.1887,3.1868,3.1931,3.1908,3.1894,3.1954,3.192,3.1932,3.1939,3.1892,3.1872,3.1898,3.1786,3.1828,3.182,3.1818,3.179,3.1775,3.1761,3.1936,3.1937,3.1937,0,0,3.178,3.1791,3.1756,3.1762,3.1773,3.1795,3.1787,3.1807,3.1817,3.1784,3.1829,3.1812,3.1789,3.1791,3.1789,3.1693,3.1726,3.1689,3.1625,3.1595,3.1582,3.1571,3.1535,3.1521,3.1682,3.1681,3.1681,0,3.1718,3.1692,3.1733,3.1708,3.1705,3.1761,3.1724,3.1728,3.1734,3.173,3.176,3.1731,3.174,3.1694,3.167,3.1668,3.1658,3.1686,3.1581,3.1571,3.1561,3.1527,3.1513,3.1677,3.1677,3.1678,3.1678,0,3.1615,3.1597,3.1567,3.1572,3.1567,3.1536,3.157,3.1559,3.1586,3.1604,3.157,3.1583,3.1575,3.1567,3.1592,3.1523,3.1539,3.1574,3.1625,3.1541,3.1509,3.1496,3.167,3.1671,3.1673,3.1674,0,0,3.1464,3.1494,3.1482,3.1485,3.1502,3.1487,3.1458,3.1453,3.1441,3.1444,3.1419,3.1399,3.1432,3.143,3.1456,3.143,3.135,3.1468,3.1469,3.1444,3.1273,3.1244,3.1228,3.1374,3.1371,3.1369,3.1271,0,3.1369,3.1323,3.1359,3.1305,3.1287,3.134,3.1315,3.1321,3.1338,3.1324,3.1343,3.1326,3.1372,3.1371,3.1348,3.1365,3.1316,3.1373,3.1348,3.1347,3.1342,3.1212,3.1182,3.1088,3.1259,3.1257,3.1256,0,3.1252,3.125,3.1195,3.1215,3.1209,3.1185,3.1182,3.117,3.1177,3.1191,3.1189,3.1223,3.1194,3.1246,3.1206,3.1244,3.1236,3.1243,3.1241,3.1237,3.1294,3.1202,3.106,3.1045,3.1237,3.1239,3.124,0,3.1144,3.1129,3.1093,3.1095,3.1117,3.1099,3.1108,3.1119,3.1112,3.111,3.1106,3.1099,3.1095,3.1088,3.1118,3.1154,3.1073,3.1129,3.1082,3.1081,3.106,3.106,3.0911,3.1059,3.106,3.106,3.106,0,3.1033,3.0996,3.1045,3.1023,3.0983,3.1025,3.0983,3.0997,3.1007,3.0987,3.1033,3.1013,3.1055,3.1039,3.1063,3.1025,3.1023,3.1032,3.1038,3.1026,3.1024,3.1019,3.1025,3.1056,3.1057,3.1058,3.1058,0,3.0905,3.0937,3.0901,3.0926,3.0932,3.0901,3.0921,3.0901,3.0922,3.0896,3.0892,3.0924,3.0907,3.0938,3.0925,3.0941,3.0886,3.0904,3.0884,3.0888,3.0838,3.0841,3.0679,3.0658,3.0822,3.082,3.0819,0,3.083,3.0803,3.0826,3.0816,3.0823,3.0807,3.0802,3.0842,3.0833,3.0841,3.0819,3.0807,3.0799,3.077,3.079,3.078,3.0796,3.074,3.0795,3.0783,3.0792,3.0792,3.0789,3.0728,3.0726,3.0724,3.0723,0,3.0693,3.071,3.0701,3.0697,3.069,3.0688,3.069,3.0679,3.0722,3.071,3.0695,3.0689,3.0676,3.0663,3.0658,3.0665,3.0699,3.0706,3.0694,3.068,3.0668,3.0672,3.085,3.0709,3.071,3.0711,3.0712,3.0712,3.0588,3.0566,3.0578,3.0566,3.0572,3.0573,3.0555,3.0574,3.0562,3.0556,3.058,3.0558,3.0567,3.0564,3.0568,3.055,3.0575,3.0558,3.0554,3.0548,3.0539,3.0674,3.055,3.055,3.0551,3.0551,3.0551,0,3.0451,3.0462,3.0451,3.0452,3.0442,3.0479,3.0483,3.0471,3.0453,3.0458,3.045,3.0431,3.0419,3.0439,3.0429,3.0411,3.0427,3.0407,3.0407,3.0408,3.0519,3.0529,3.0394,3.0394,3.0394,3.0394,3.0394,3.0395,3.0378,3.0343,3.0361,3.0329,3.034,3.032,3.0319,3.0319,3.0324,3.0302,3.0292,3.0306,3.0317,3.0308,3.0298,3.0304,3.0297,3.0271,3.0282,3.0385,3.04,3.0415,3.0424,3.027,3.0269,3.0172,3.0171,3.017]}]]